Portada
METAR-TAF:

METAR-TAF

Aeroports :

Greenville, Alabama, Estats Units d'Amèrica

latitud: 31-50-44N, longitud: 086-36-38W, altitud: 138 m

Observació

L'informe es va fer fa 22 minuts, a les 03:58 UTC
Vent 4 kt del Est/Nord-Est
Temperatura 14°C
Humitat 82%
Pressió 1018 hPa
Visibilitat: 16.1 km
Cel clar

METAR: KPRN 290358Z AUTO 06004KT 10SM CLR 14/11 A3007 RMK AO2 SLP129 T01390106 $

Hora: 22:20 (04:20 UTC)


TAF: manca

Observacions i pronòstics meteorològics de més de 4000 aeroports (METAR i TAF).

Les estacions disponibles són els punts grocs i vermells al mapa.

Posi el ratolí al punt desitjat per veure el nom de l'estació.

Feu clic per veure les observacions i els pronòstics meteorològics.

Per canviar el mapa: feu clic els botons verds amb una creu de color negre per apropar; al botó verd amb un guió per allunyar la imatge; o en les fletxes verdes per a mapes adjacents.


METAR-TAF: